Regional Weather Roundup
Issued by NWS

Home | Current Version | Previous Version | Graphics & Text | Print | Product List | Glossary On
Versions: 1 2 3 4 5 6 7 8 9 10 11 12 13 14 15 16 17 18 19 20 21 22 23 24 25 26 27 28 29 30 31 32 33 34 35 36 37 38 39 40 41 42 43 44 45 46 47 48 49 50
000
ASUS43 KMPX 272001
RWRMN
WEATHER ROUNDUP FOR MINNESOTA
NATIONAL WEATHER SERVICE TWIN CITIES/CHANHASSEN MN
300 PM CDT THU JUL 27 2017


NOTE: "FAIR" INDICATES FEW OR NO CLOUDS BELOW 12,000 FEET WITH NO
SIGNIFICANT WEATHER AND/OR OBSTRUCTIONS TO VISIBILITY. N/A MEANS
CURRENT SKY AND/OR WEATHER CONDITIONS ARE NOT AVAILABLE.

MNZ060>063-068>070-272100-
   Twin Cities Metro

CITY           SKY/WX    TMP DP  RH WIND       PRES   REMARKS
TWIN CITIES    MOSUNNY   84  57  39 N9        30.06F
ST PAUL        MOSUNNY   83  57  41 NE8       30.06S
CRYSTAL        PTSUNNY   81  57  43 N8        30.05F
BLAINE         PTSUNNY   86  57  37 NE9       30.07S
LAKEVILLE      SUNNY     81  61  50 CALM      30.06F
EDEN PRAIRIE   MOSUNNY   84  59  42 VRB3      30.05F
SOUTH ST PAUL  MOSUNNY   83  57  40 N8        30.05F
LAKE ELMO      FAIR      81  63  54 N3        30.07F
$$
MNZ001>005-007-008-013>017-022>024-027-028-272100-
   Northwest Minnesota

CITY           SKY/WX    TMP DP  RH WIND       PRES   REMARKS
BEMIDJI        SUNNY     81  55  41 N7        30.11F
HALLOCK        SUNNY     82  57  42 NW6       30.09S
ROSEAU         SUNNY     82  64  54 W9        30.10S
WARROAD        PTSUNNY   79  66  65 E5        30.10S THUNDER
CROOKSTON      MOSUNNY   81  57  44 CALM      30.11S
FOSSTON        SUNNY     81  57  44 CALM      30.12F
DETROIT LAKES  MOSUNNY   79  61  53 N3        30.14S
MOORHEAD       PTSUNNY   81  59  47 N6        30.11F
PARK RAPIDS    PTSUNNY   81  58  45 N8        30.12S
MAHNOMEN       FAIR      80  60  49 NW5       30.11F
$$
MNZ006-009>011-018-025>026-272100-
   North Central Minnesota

CITY           SKY/WX    TMP DP  RH WIND       PRES   REMARKS
BAUDETTE       MOSUNNY   83  59  44 N6        30.09F
FLAG ISLAND    MOSUNNY   82  66  57 CALM      30.09S
INTL FALLS     MOSUNNY   80  53  39 N3        30.08F
WASKISH        PTSUNNY   79  64  61 W8        30.10F
BIG FORK       MOSUNNY   79  61  53 W5        30.11S
LONGVILLE      MOSUNNY   81  59  47 W5        30.11S
GRAND RAPIDS   CLOUDY    77  61  57 W9        30.13R
CRANE LAKE     SUNNY     79  54  41 NW7       30.09F
ORR            SUNNY     81  52  36 N3        30.07F
COOK             N/A     77  55  47 W5        30.09F
WALKER         FAIR      80  54  41 NE5       30.11F
$$
MNZ012-019>021-037-272100-
   Northeast Minnesota

CITY           SKY/WX    TMP DP  RH WIND       PRES   REMARKS
DULUTH         CLOUDY    73  62  68 SE7       30.11S
ELY            SUNNY     79  46  31 NE5       30.08F
HIBBING        SUNNY     79  53  40 NW6       30.10F
EVELETH        MOSUNNY   81  37  21 W6        30.10F
DULUTH HARBOR  SUNNY     70  64  83 NE7       30.10S
GRAND MARAIS     N/A     70  54  56 NE5       30.09F
G MARAIS ARPRT SUNNY     72  52  49 SE6       30.13S
$$
MNZ029>031-032-039>041-046>048-054>057-064-272100-
   West Central Minnesota

CITY           SKY/WX    TMP DP  RH WIND       PRES   REMARKS
FERGUS FALLS   MOSUNNY   81  59  47 CALM      30.10F
WHEATON        MOSUNNY   81  57  44 CALM      30.12F
MORRIS         MOSUNNY   82  57  42 NE6       30.10F
ALEXANDRIA     MOSUNNY   80  57  45 NW3       30.14S
ELBOW LAKE     FAIR      78  58  50 N3        30.12F HAZE
WADENA         MOSUNNY   81  57  44 NW5       30.11F
GLENWOOD       MOSUNNY   81  57  44 NW3       30.13S
BENSON         MOSUNNY   82  57  42 E6        30.11F
ORTONVILLE     MOSUNNY   82  59  44 N7          N/A
MADISON        SUNNY     84  61  45 E3        30.10F
WILLMAR        FAIR      81  59  47 N5        30.11S
$$
MNZ033>034-036-042>043-049>051-058-059-272100-
   Central Minnesota

CITY           SKY/WX    TMP DP  RH WIND       PRES   REMARKS
ST CLOUD       MOSUNNY   82  58  43 N6        30.09S
SAUK CENTRE    FAIR      81  57  44 N6        30.11S
PAYNESVILLE    MOSUNNY   83  56  38 N6        30.11S
AITKIN         SUNNY     79  61  53 N6        30.09F
PINE RIVER     MOSUNNY   81  59  47 N7        30.14S
BRAINERD       MOSUNNY   81  57  43 W6        30.11S
STAPLES        PTSUNNY   81  55  41 NW6       30.11F
LONG PRAIRIE   FAIR      79  59  50 CALM      30.12F
LITTLE FALLS   MOSUNNY   79  55  44 CALM      30.10F
LITCHFIELD     SUNNY     84  61  45 N3        30.09S
BUFFALO        MOSUNNY   82  56  42 NE6       30.09S
MAPLE LAKE     MOSUNNY   84  58  41 N5        30.10R
HUTCHINSON     MOSUNNY   82  63  51 N6        30.10S
$$
MNZ037-044-045-052-053-272100-
   East Central Minnesota

CITY           SKY/WX    TMP DP  RH WIND       PRES   REMARKS
PRINCETON      MOSUNNY   84  61  45 CALM      30.09S
MORA           SUNNY     77  61  57 NW7       30.10F
CAMBRIDGE      SUNNY     82  63  51 CALM      30.07S
RUSH CITY      MOSUNNY   81  59  46 CALM      30.08S
MOOSE LAKE     MOSUNNY   81  55  41 CALM      30.07F
HINCKLEY       FAIR      81  61  50 NE3       30.08F
CLOQUET        PTSUNNY   79  57  47 E6        30.10S
MCGREGOR       PTSUNNY   79  57  47 CALM      30.10S
$$
MNZ071>073-080-081-089-090-097-098-272100-
   Southwest Minnesota

CITY           SKY/WX    TMP DP  RH WIND       PRES   REMARKS
MONTEVIDEO     MOSUNNY   88  61  40 E6        30.10F
CANBY          PTSUNNY   82  58  43 CALM      30.12S
MARSHALL       MOSUNNY   79  61  53 VRB6      30.11S
REDWOOD FALLS  SUNNY     83  60  45 VRB7      30.08F
OLIVIA         SUNNY     81  61  50 NE8       30.09S
PIPESTONE      MOSUNNY   81  59  47 NE7       30.12S
WINDOM         SUNNY     79  61  53 N8        30.10S
WORTHINGTON    MOSUNNY   78  60  53 N9        30.11F
JACKSON        MOSUNNY   79  61  53 CALM      30.10S
TRACY          MOSUNNY   79  63  56 N7        30.11S
SLAYTON        HVY RAIN  78  47  33 N7        30.13S
$$
MNZ065>067-074>077-082>085-091>093-272100-
   South Central Minnesota

CITY           SKY/WX    TMP DP  RH WIND       PRES   REMARKS
MANKATO        MOSUNNY   81  62  52 N9        30.08S
NEW ULM        MOSUNNY   81  59  47 N8        30.08S
ST JAMES       MOSUNNY   81  64  57 N5        30.09S
FAIRMONT       MOSUNNY   81  65  58 N10G17    30.07F
GLENCOE        MOSUNNY   82  65  56 N7        30.08S
FARIBAULT      MOSUNNY   81  63  54 NE7       30.07S
OWATONNA       PTSUNNY   79  63  57 N9        30.07S
WASECA         MOSUNNY   79  63  57 N10       30.08F
ALBERT LEA     MOSUNNY   81  66  61 N8        30.06S
$$
MNZ078>079-086>088-094>096-272100-
   Southeast Minnesota

CITY           SKY/WX    TMP DP  RH WIND       PRES   REMARKS
ROCHESTER      PTSUNNY   78  64  61 N10       30.06F
RED WING       MOSUNNY   84  55  37 N7        30.04S
STANTON        SUNNY     82  62  51 N8        30.05F
DODGE CENTER   SUNNY     81  63  54 N9        30.07S
WINONA         MOSUNNY   81  59  47 N6        30.03S
AUSTIN         MOSUNNY   81  61  50 N6        30.06S
PRESTON        MOSUNNY   79  61  53 NE6       30.06S
$$
ABBREVIATIONS USED IN REMARKS
   TC - TEMPERATURES IN CELSIUS
  WCI - WIND CHILL INDEX
   HX - HEAT INDEX
  VSB - VISIBILITY
$$




USA.gov is the U.S. government's official web portal to all federal, state and local government web resources and services.